User: anonymous   Login
Location: *
(45.0500°N, 12.0500°E)
Time: 15:47:34
(UTC+00:00)
Language:

CARTOSAT-1 - Orbit

View from above orbital plane
View from above orbital plane
View from above satellite
View from above satellite

Ground track
Ground track

The orbit data is extracted from the following two-line orbital elements,

1 28649U 05017A   21216.16056362  .00000075  00000-0  15266-4 0  9999
2 28649  97.7650 281.0332 0002187 130.4941 229.6464 14.83806745879704
Epoch (UTC): 04 August 2021 03:51:12
Eccentricity: 0.0002187
inclination: 97.7650°
perigee height: 616 km
apogee height: 619 km
right ascension of ascending node: 281.0332°
argument of perigee: 130.4941°
revolutions per day: 14.83806745
mean anomaly at epoch: 229.6464°
orbit number at epoch: 87970

The dashed part of the orbit path shows where the satellite is in the earth's shadow,  

DLR